When you browse on this site, cookies collect data to enhance your experience and personalize the content and advertising you see.
Visit our Privacy Policy to learn more. By continuing to use the site, you agree to this use of cookies and data.
  • In Czech Republic
  • List of Countries
  • For 7 days
  • Water Temperature
  • Weather Map
  • Weather Widgets
  • user-avatar
    Login

    Hourly Weather Tiberias

    Today, 4 June, Thursday

    Time Temperature Precipitation Wind Pressure Humidity
    00:00 +18°C° 0 mm 0 mps 762 mmHg 75%
    01:00 +17°C° 0 mm 0 mps 762 mmHg 75%
    02:00 +17°C° 0 mm 0 mps 762 mmHg 79%
    03:00 +17°C° 0 mm 0 mps 762 mmHg 78%
    04:00 +17°C° 0 mm 0 mps 762 mmHg 77%
    05:00 +17°C° 0 mm 0 mps 763 mmHg 76%
    06:00 +21°C° 0 mm 1 mps 763 mmHg 64%
    07:00 +24°C° 0 mm 1 mps 763 mmHg 52%
    08:00 +26°C° 0 mm 1 mps 763 mmHg 40%
    09:00 +28°C° 0 mm 2 mps 763 mmHg 35%
    10:00 +30°C° 0 mm 2 mps 763 mmHg 30%
    11:00 +33°C° 0 mm 3 mps 763 mmHg 25%
    12:00 +34°C° 0 mm 3 mps 763 mmHg 25%
    13:00 +34°C° 0 mm 4 mps 763 mmHg 25%
    14:00 +35°C° 0 mm 5 mps 763 mmHg 26%
    15:00 +34°C° 0 mm 5 mps 763 mmHg 28%
    16:00 +33°C° 0 mm 5 mps 763 mmHg 29%
    17:00 +32°C° 0 mm 4 mps 763 mmHg 31%
    18:00 +29°C° 0 mm 3 mps 763 mmHg 37%
    19:00 +27°C° 0 mm 2 mps 763 mmHg 43%
    20:00 +25°C° 0 mm 1 mps 763 mmHg 49%
    21:00 +25°C° 0 mm 1 mps 764 mmHg 49%
    22:00 +24°C° 0 mm 1 mps 764 mmHg 49%
    23:00 +24°C° 0 mm 1 mps 764 mmHg 49%

    Tomorrow, 5 June, Friday

    Time Temperature Precipitation Wind Pressure Humidity
    00:00 +23°C° 0 mm 1 mps 764 mmHg 51%
    01:00 +23°C° 0 mm 1 mps 764 mmHg 53%
    02:00 +20°C° 0 mm 0 mps 763 mmHg 56%
    03:00 +20°C° 0 mm 0 mps 764 mmHg 57%
    04:00 +20°C° 0 mm 0 mps 764 mmHg 58%
    05:00 +19°C° 0 mm 0 mps 764 mmHg 59%
    06:00 +24°C° 0 mm 1 mps 764 mmHg 50%
    07:00 +27°C° 0 mm 1 mps 764 mmHg 41%
    08:00 +30°C° 0 mm 1 mps 764 mmHg 32%
    09:00 +31°C° 0 mm 1 mps 764 mmHg 28%
    10:00 +34°C° 0 mm 2 mps 764 mmHg 24%
    11:00 +36°C° 0 mm 2 mps 764 mmHg 21%
    12:00 +36°C° 0 mm 2 mps 763 mmHg 21%
    13:00 +37°C° 0 mm 3 mps 763 mmHg 21%
    14:00 +37°C° 0 mm 3 mps 762 mmHg 21%
    15:00 +37°C° 0 mm 4 mps 762 mmHg 22%
    16:00 +36°C° 0 mm 4 mps 762 mmHg 23%
    17:00 +35°C° 0 mm 5 mps 761 mmHg 24%
    18:00 +33°C° 0 mm 4 mps 762 mmHg 29%
    19:00 +29°C° 0 mm 3 mps 762 mmHg 33%
    20:00 +27°C° 0 mm 2 mps 762 mmHg 37%
    21:00 +26°C° 0 mm 1 mps 762 mmHg 38%
    22:00 +26°C° 0 mm 1 mps 762 mmHg 40%
    23:00 +25°C° 0 mm 1 mps 762 mmHg 41%

    Day after tomorrow, 6 June, Saturday

    Time Temperature Precipitation Wind Pressure Humidity
    00:00 +25°C° 0 mm 1 mps 762 mmHg 43%
    01:00 +24°C° 0 mm 1 mps 762 mmHg 45%
    02:00 +23°C° 0 mm 1 mps 762 mmHg 46%
    03:00 +24°C° 0 mm 1 mps 762 mmHg 46%
    04:00 +24°C° 0 mm 1 mps 762 mmHg 46%
    05:00 +24°C° 0 mm 1 mps 762 mmHg 46%
    06:00 +27°C° 0 mm 1 mps 762 mmHg 39%
    07:00 +30°C° 0 mm 1 mps 762 mmHg 33%
    08:00 +33°C° 0 mm 1 mps 763 mmHg 26%
    09:00 +34°C° 0 mm 1 mps 762 mmHg 24%
    10:00 +37°C° 0 mm 2 mps 762 mmHg 23%
    11:00 +39°C° 0 mm 2 mps 762 mmHg 21%
    12:00 +39°C° 0 mm 3 mps 761 mmHg 21%
    13:00 +41°C° 0 mm 4 mps 761 mmHg 21%
    14:00 +41°C° 0 mm 5 mps 760 mmHg 21%
    15:00 +40°C° 0 mm 4 mps 760 mmHg 22%
    16:00 +38°C° 0 mm 4 mps 760 mmHg 23%
    17:00 +37°C° 0 mm 4 mps 760 mmHg 24%
    18:00 +34°C° 0 mm 3 mps 760 mmHg 31%
    19:00 +30°C° 0 mm 2 mps 760 mmHg 38%
    20:00 +27°C° 0 mm 2 mps 760 mmHg 46%
    21:00 +27°C° 0 mm 1 mps 760 mmHg 47%
    22:00 +26°C° 0 mm 1 mps 760 mmHg 49%
    23:00 +25°C° 0 mm 1 mps 761 mmHg 50%

    7 June, Sunday

    Time Temperature Precipitation Wind Pressure Humidity
    00:00 +25°C° 0 mm 1 mps 760 mmHg 51%
    01:00 +24°C° 0 mm 1 mps 760 mmHg 52%
    02:00 +22°C° 0 mm 0 mps 760 mmHg 53%
    03:00 +24°C° 0 mm 1 mps 760 mmHg 55%
    04:00 +23°C° 0 mm 1 mps 760 mmHg 56%
    05:00 +23°C° 0 mm 1 mps 760 mmHg 57%
    06:00 +26°C° 0 mm 1 mps 760 mmHg 48%
    07:00 +30°C° 0 mm 1 mps 760 mmHg 39%
    08:00 +33°C° 0 mm 1 mps 760 mmHg 30%
    09:00 +36°C° 0 mm 2 mps 760 mmHg 27%
    10:00 +38°C° 0 mm 2 mps 760 mmHg 24%
    11:00 +40°C° 0 mm 3 mps 760 mmHg 21%
    12:00 +41°C° 0 mm 4 mps 760 mmHg 21%
    13:00 +41°C° 0 mm 5 mps 759 mmHg 21%
    14:00 +41°C° 0 mm 6 mps 759 mmHg 22%
    15:00 +39°C° 0 mm 5 mps 759 mmHg 24%
    16:00 +37°C° 0 mm 5 mps 758 mmHg 25%
    17:00 +36°C° 0 mm 4 mps 758 mmHg 27%
    18:00 +33°C° 0 mm 4 mps 759 mmHg 34%
    19:00 +29°C° 0 mm 3 mps 759 mmHg 41%
    20:00 +27°C° 0 mm 2 mps 760 mmHg 49%
    21:00 +26°C° 0 mm 2 mps 760 mmHg 52%
    22:00 +25°C° 0 mm 1 mps 760 mmHg 56%
    23:00 +24°C° 0 mm 1 mps 759 mmHg 59%

    8 June, Monday

    Time Temperature Precipitation Wind Pressure Humidity
    00:00 +23°C° 0 mm 1 mps 759 mmHg 61%
    01:00 +23°C° 0 mm 1 mps 759 mmHg 62%
    02:00 +22°C° 0 mm 1 mps 759 mmHg 64%
    03:00 +22°C° 0 mm 1 mps 759 mmHg 64%
    04:00 +22°C° 0 mm 1 mps 759 mmHg 64%
    05:00 +22°C° 0 mm 1 mps 759 mmHg 65%
    06:00 +25°C° 0 mm 1 mps 759 mmHg 56%
    07:00 +27°C° 0 mm 1 mps 759 mmHg 48%
    08:00 +29°C° 0 mm 2 mps 759 mmHg 39%
    09:00 +32°C° 0 mm 2 mps 759 mmHg 34%
    10:00 +35°C° 0 mm 3 mps 759 mmHg 28%
    11:00 +37°C° 0 mm 4 mps 759 mmHg 22%
    12:00 +37°C° 0 mm 5 mps 759 mmHg 23%
    13:00 +38°C° 0 mm 6 mps 759 mmHg 23%
    14:00 +38°C° 0 mm 7 mps 758 mmHg 24%
    15:00 +36°C° 0 mm 6 mps 758 mmHg 28%
    16:00 +34°C° 0 mm 5 mps 758 mmHg 32%
    17:00 +33°C° 0 mm 4 mps 758 mmHg 36%
    18:00 +30°C° 0 mm 4 mps 759 mmHg 45%
    19:00 +27°C° 0 mm 3 mps 759 mmHg 53%
    20:00 +25°C° 0 mm 2 mps 759 mmHg 61%
    21:00 +25°C° 0 mm 2 mps 759 mmHg 62%
    22:00 +24°C° 0 mm 1 mps 759 mmHg 63%
    23:00 +23°C° 0 mm 1 mps 759 mmHg 65%

    9 June, Tuesday

    Time Temperature Precipitation Wind Pressure Humidity
    00:00 +23°C° 0 mm 1 mps 759 mmHg 67%
    01:00 +22°C° 0 mm 1 mps 759 mmHg 70%
    02:00 +22°C° 0 mm 1 mps 759 mmHg 73%
    03:00 +22°C° 0 mm 1 mps 759 mmHg 75%
    04:00 +22°C° 0 mm 1 mps 759 mmHg 77%
    05:00 +21°C° 0 mm 1 mps 759 mmHg 80%
    06:00 +24°C° 0 mm 1 mps 760 mmHg 69%
    07:00 +26°C° 0 mm 1 mps 760 mmHg 59%
    08:00 +28°C° 0 mm 2 mps 760 mmHg 48%
    09:00 +30°C° 0 mm 2 mps 760 mmHg 41%
    10:00 +33°C° 0 mm 3 mps 760 mmHg 34%
    11:00 +35°C° 0 mm 3 mps 760 mmHg 27%
    12:00 +36°C° 0 mm 4 mps 760 mmHg 27%
    13:00 +36°C° 0 mm 5 mps 760 mmHg 27%
    14:00 +36°C° 0 mm 6 mps 760 mmHg 26%
    15:00 +35°C° 0 mm 6 mps 760 mmHg 28%
    16:00 +33°C° 0 mm 5 mps 759 mmHg 31%
    17:00 +32°C° 0 mm 5 mps 759 mmHg 33%
    18:00 +29°C° 0 mm 4 mps 760 mmHg 42%
    19:00 +26°C° 0 mm 3 mps 760 mmHg 51%
    20:00 +24°C° 0 mm 2 mps 760 mmHg 59%
    21:00 +23°C° 0 mm 1 mps 760 mmHg 63%
    22:00 +22°C° 0 mm 1 mps 760 mmHg 67%
    23:00 +22°C° 0 mm 1 mps 760 mmHg 70%
    Show more